Dewpoint
53 53 53 52 53 53 52 51 53 51 51 51 50 50 51 52 52 44 37 42 50 54 53 49 51 49 51 48 49 48 40 39 39 37 31 37 40 46 50 50 56 54 58 62 66
53 53 52 52 51 53 52 51 51 52 51 51 50 51 52 53 47 42 43 52 53 52 49 49 47 48 45 46 46 42 41 39 41 43 37 38 42 48 51 56 57 59 63 65 66
53 53 53 52 51 51 52 50 50 51 51 51 51 52 53 49 38 34 46 50 51 52 51 50 49 48 42 44 43 42 41 43 44 50 49 40 43 44 51 51 55 55 62 64 64
53 53 52 53 52 51 52 51 50 51 52 51 52 53 53 42 27 36 47 49 48 51 49 47 48 44 42 40 43 38 40 42 49 50 47 42 42 42 43 48 57 62 63 63 61
54 53 52 53 52 51 51 51 51 51 52 52 53 53 44 33 33 37 47 45 42 50 47 46 45 44 41 41 41 39 39 44 49 50 48 46 44 44 45 53 61 62 62 61 61
54 53 52 52 52 51 51 51 51 51 52 52 53 53 38 31 36 36 39 42 41 45 47 47 45 46 41 39 37 41 42 42 46 48 47 45 44 44 45 48 60 61 61 60 61
55 53 53 52 51 51 51 52 52 52 52 52 52 48 39 33 35 38 41 46 43 44 46 48 48 45 43 40 42 42 38 38 45 46 45 46 44 45 46 50 55 58 60 61 60
56 54 53 52 52 51 51 52 52 52 52 52 52 43 32 36 39 41 41 45 47 49 49 51 50 46 44 44 43 39 37 33 40 44 45 44 41 42 45 44 43 49 56 59 61
57 55 54 52 52 51 51 52 52 51 52 51 43 39 31 41 39 40 42 42 44 45 45 48 46 41 42 40 39 39 33 33 36 43 43 42 40 43 45 43 41 42 46 53 58
57 56 54 52 51 50 51 52 51 49 42 44 40 29 31 35 38 40 43 44 43 41 39 42 38 37 35 33 30 34 34 35 34 40 40 38 38 41 42 44 42 42 40 43 49
58 56 53 52 50 50 50 42 36 34 36 33 33 32 34 39 41 39 43 43 40 38 35 37 36 34 35 34 33 35 35 34 37 42 38 38 37 39 42 42 42 41 40 39 41
56 55 52 52 49 50 48 38 38 36 32 36 36 36 37 40 37 37 43 37 36 31 33 30 32 37 38 36 32 34 34 33 38 42 39 38 35 39 41 42 41 42 41 40 40
53 54 53 51 49 48 44 40 42 42 33 34 36 35 35 39 36 35 41 38 35 33 32 26 32 37 35 32 30 30 29 30 35 40 40 39 36 38 41 42 42 42 42 40 40
53 54 52 50 46 45 40 42 42 37 23 24 36 36 39 38 31 38 42 39 33 32 33 31 35 35 33 32 31 28 32 31 38 35 30 36 25 35 38 39 40 40 41 41 39
52 53 52 51 46 41 42 44 42 35 13 25 36 40 40 35 34 36 41 38 33 34 31 27 33 33 32 32 33 30 35 33 37 32 31 33 29 28 36 36 37 38 39 40 39
52 53 52 50 47 46 44 43 38 26 13 28 37 37 35 35 34 37 38 39 38 32 31 30 35 36 34 35 35 34 35 35 35 32 27 29 30 27 29 31 34 36 36 38 37
51 52 51 49 43 45 44 39 28 22 27 28 32 36 33 31 32 34 33 31 26 20 18 27 28 33 37 33 34 34 30 27 26 27 22 27 30 29 30 30 28 30 31 34 34
53 51 51 48 46 45 40 34 22 22 25 28 33 33 29 31 30 32 30 28 31 28 23 21 16 29 35 33 29 31 29 22 18 20 20 29 27 29 29 28 29 29 28 28 29
51 49 48 48 46 45 37 28 25 24 28 31 32 28 28 31 29 30 28 26 28 31 23 25 23 30 33 36 34 32 28 32 24 21 17 24 26 22 24 24 24 26 28 28 30
47 46 46 47 46 43 35 30 28 29 33 32 23 27 24 28 27 26 26 29 28 32 31 27 22 29 34 37 37 34 34 29 32 23 19 19 18 19 18 20 24 27 28 29 30
46 40 47 47 45 39 30 31 30 34 34 30 26 28 25 27 28 25 26 29 32 31 31 31 31 24 33 31 30 35 35 32 31 27 19 16 15 20 22 22 22 26 29 29 30
43 36 48 46 38 38 34 34 35 33 34 33 31 29 27 27 26 25 27 28 29 34 29 31 31 24 24 33 39 36 35 34 27 24 21 17 19 22 25 29 27 26 31 32 33
40 41 48 45 32 34 37 37 34 33 32 32 30 31 31 27 23 27 27 30 31 30 30 33 26 21 16 30 35 35 36 36 34 28 19 18 20 22 26 31 31 32 34 34 34
42 35 41 43 41 35 35 31 30 34 33 33 31 32 29 26 28 25 24 28 31 34 36 33 27 18 15 18 29 26 31 33 34 29 23 23 21 23 23 29 31 32 33 35 35
42 37 37 33 35 36 34 29 28 29 31 32 29 29 28 24 23 23 19 19 28 31 31 30 14 23 25 27 30 30 29 30 31 33 26 23 24 24 24 24 26 32 30 30 31
39 35 38 36 36 36 35 28 28 30 29 28 25 25 24 22 21 19 20 20 18 24 26 28 13 22 16 23 25 25 28 30 31 32 34 33 30 31 30 28 28 28 31 31 31
42 34 34 34 34 33 33 27 27 26 23 23 26 20 19 19 22 22 22 23 24 20 22 24 23 16 15 20 26 18 26 29 29 34 33 30 33 36 36 35 35 32 32 32 32
Lifted_Index
8 8 9 10 10 10 10 11 11 12 13 13 14 14 14 13 10 7 5 2 1 1 1 1 -0 -0 -0 0 1 1 1 1 1 1 1 1 0 -0 -1 -1 -1 -1 -1 -2 -3
8 8 9 9 10 10 10 11 11 12 13 13 14 14 14 13 10 7 5 2 1 1 1 0 -0 -0 0 1 1 1 1 1 1 1 1 1 -0 -1 -1 -2 -2 -2 -2 -3 -3
8 8 8 9 9 10 10 11 12 12 12 13 13 13 13 13 10 7 4 3 2 2 1 0 -0 -0 0 1 2 1 1 0 0 -0 0 0 -0 -1 -1 -2 -3 -4 -4 -4 -3
7 7 8 8 9 10 10 11 11 12 12 12 13 13 13 12 9 6 4 3 3 2 1 1 -0 -0 1 2 2 2 2 1 -0 -1 -0 -0 -0 -1 -1 -2 -4 -5 -5 -4 -3
5 6 8 8 9 10 10 10 11 12 12 12 12 12 13 11 8 5 4 4 3 2 1 1 0 0 1 2 3 3 2 1 0 -0 -0 -0 -0 -1 -2 -3 -5 -5 -5 -4 -3
4 5 7 8 9 10 10 10 11 11 11 11 12 12 12 10 7 5 4 3 3 2 1 1 0 0 1 3 3 3 3 2 1 -0 -0 -0 -1 -1 -2 -3 -4 -5 -5 -4 -3
3 4 6 7 8 9 10 10 10 11 11 11 11 12 12 9 6 5 4 3 2 2 1 1 0 0 1 2 3 3 3 2 1 0 -0 -0 -0 -1 -1 -2 -3 -4 -4 -4 -3
2 3 6 7 8 9 10 10 10 11 11 11 12 12 11 9 7 5 4 3 2 2 2 2 1 0 1 2 3 3 3 2 1 0 -0 -0 -0 -0 -0 -1 -2 -2 -3 -3 -3
2 3 5 7 8 9 10 10 10 11 11 12 12 13 11 9 7 5 5 4 3 3 3 2 1 1 1 1 2 3 3 3 2 1 0 -0 -0 -0 -0 -0 -0 -1 -1 -2 -3
2 2 4 7 8 9 10 10 11 11 12 12 13 12 11 9 8 6 5 5 5 4 4 3 2 1 1 1 2 2 3 3 3 2 1 -0 -0 -0 0 0 0 0 -0 -1 -2
2 3 4 7 9 10 10 11 11 12 13 13 12 12 11 10 9 7 6 6 6 5 5 4 3 3 2 2 2 2 3 3 3 3 1 0 -0 -0 0 1 1 1 1 0 -0
3 3 4 7 9 10 11 11 11 12 12 12 12 12 11 11 9 8 7 6 6 6 5 5 5 4 3 3 3 3 3 3 3 3 2 1 0 0 0 1 1 1 1 1 1
4 3 5 7 9 10 11 11 10 11 11 11 12 12 12 11 10 9 8 7 6 6 5 5 5 5 5 4 4 4 3 3 2 3 3 2 1 1 1 1 1 2 1 2 2
4 4 5 7 9 10 11 10 10 9 9 10 11 11 11 11 10 10 9 8 7 6 5 5 6 5 5 5 4 4 4 3 3 3 3 2 1 2 2 2 2 2 1 1 1
4 4 5 7 9 10 10 10 10 8 7 8 10 11 11 11 11 10 9 9 8 7 6 5 5 5 5 4 4 4 3 3 3 3 3 2 2 2 3 3 2 2 2 1 1
5 5 5 7 9 9 10 10 9 7 6 7 9 10 10 10 11 10 10 9 8 7 6 6 6 5 5 4 3 3 3 2 2 2 3 3 3 3 3 3 2 2 2 2 1
5 5 6 7 8 9 9 9 8 6 6 7 8 9 9 10 10 10 10 10 9 8 7 6 6 5 4 3 3 2 2 2 1 1 2 3 3 3 3 3 2 3 3 2 2
5 5 6 7 8 8 9 8 7 6 7 8 8 8 9 9 10 10 10 10 9 9 7 6 5 5 4 3 2 2 1 1 1 1 1 2 3 3 3 3 3 3 3 3 2
5 5 6 7 8 8 8 7 7 7 8 8 8 8 8 9 9 10 10 10 10 9 8 7 5 5 4 2 1 1 0 0 0 1 1 2 2 3 3 3 3 3 3 3 3
6 6 6 6 7 8 8 7 7 8 8 8 7 7 8 8 9 10 10 10 10 9 9 8 6 5 3 1 0 0 -0 -0 0 0 1 1 2 2 2 2 3 3 3 3 3
6 6 6 6 7 8 7 7 8 8 9 8 8 8 8 9 9 10 10 10 10 9 9 8 7 5 3 1 -0 -0 -0 -0 -0 0 0 1 2 2 2 2 2 3 3 3 2
6 6 6 7 7 8 7 7 8 9 9 9 9 9 9 9 9 10 10 10 10 10 10 9 8 6 3 1 0 -0 -0 -0 -0 0 1 1 2 2 2 2 2 2 2 2 2
5 6 6 7 7 7 7 8 9 9 9 9 9 10 10 10 10 10 11 11 11 11 11 10 9 7 4 2 1 0 0 0 0 0 1 1 1 2 2 1 1 2 2 2 2
5 6 6 7 7 7 7 8 9 9 9 9 10 10 10 10 10 11 11 12 12 12 12 11 10 9 6 3 2 1 1 1 0 0 1 1 1 1 1 1 1 1 2 2 2
6 6 6 7 8 8 8 8 9 9 9 9 10 10 10 10 10 11 12 12 13 13 13 12 11 10 9 6 4 2 2 1 1 1 1 1 1 1 1 1 1 1 2 2 2
6 6 6 7 7 7 7 8 9 9 9 9 10 10 10 10 11 11 13 13 13 13 13 13 12 11 10 7 5 3 2 1 1 1 1 1 1 1 1 1 1 1 1 2 2
6 6 6 7 7 6 7 8 9 9 10 10 10 11 11 11 12 13 14 14 14 13 13 13 13 11 9 7 5 3 1 1 1 1 1 1 1 1 1 1 1 1 1 2 2